Weather History for Casper, WY

Change the Weather History Date:

Sunday, January 15, 2012

  Actual Average Record
Temperature  
Mean Temperature 32 °F 25 °F  
Max Temperature 45 °F 35 °F 52 °F (1995)
Min Temperature 19 °F 15 °F -20 °F (1957)
Degree Days  
Heating Degree Days 33 40  
Month to date heating degree days 559 605  
Since 1 July heating degree days 3459 3734  
Cooling Degree Days 0 0  
Month to date cooling degree days 0 0  
Year to date cooling degree days 0 0  
Moisture  
Dew Point 14 °F    
Average Humidity 53    
Maximum Humidity 75    
Minimum Humidity 30    
Precipitation  
Precipitation 0.00 in 0.02 in 0.30 in (1943)
Month to date precipitation 0.18 0.25  
Year to date precipitation 0.18 0.25  
Sea Level Pressure  
Sea Level Pressure 29.74 in    
Wind  
Wind Speed 19 mph (SW)    
Max Wind Speed 29 mph    
Max Gust Speed 43 mph    
Visibility 10 miles    
Events      
T = Trace of Precipitation, MM = Missing Value Source: NWS Daily Summary

Daily Weather History Graph

Daily Weather History Graph

Search for Another Location

Airport:

Trip Planner

Search our weather history database for the weather conditions in past years. The results will help you decide how hot, cold, wet, or windy it might be!

Date:

Astronomy

Jan. 15, 2012 Rise Set
Actual Time 7:34 AM MST 4:56 PM MST
Civil Twilight 7:02 AM MST 5:27 PM MST
Nautical Twilight 6:27 AM MST 6:02 PM MST
Astronomical Twilight 5:53 AM MST 6:36 PM MST
Moon No Moon Rise 10:41 AM MST (1/15)
Length of Visible Light 10h 25m
Length of Day
9h 22m
Waning Gibbous, 57% of the Moon is Illuminated
Jan 15
Waning Gibbous
Jan 16
Last Quarter
Jan 23
New
Jan 30
First Quarter
Feb 7
Full

Hourly Weather History & Observations

Time (MST) Temp. Windchill Dew Point Humidity Pressure Visibility Wind Dir Wind Speed Gust Speed Precip Events Conditions
12:53 AM 36.0 °F 25.0 °F 14.0 °F 41% 29.82 in 10.0 mi SSW 20.7 mph 29.9 mph N/A   Clear
1:53 AM 35.1 °F 25.9 °F 12.9 °F 40% 29.83 in 10.0 mi WSW 13.8 mph - N/A   Clear
2:53 AM 35.6 °F 24.5 °F 12.2 °F 38% 29.79 in 10.0 mi SSW 20.7 mph 25.3 mph N/A   Clear
3:53 AM 34.0 °F 22.4 °F 12.0 °F 40% 29.79 in 10.0 mi SW 20.7 mph 31.1 mph N/A   Clear
4:53 AM 33.8 °F 22.5 °F 10.4 °F 38% 29.77 in 10.0 mi SW 19.6 mph - N/A   Clear
5:53 AM 33.1 °F 23.0 °F 10.9 °F 40% 29.78 in 10.0 mi SW 15.0 mph - N/A   Clear
6:53 AM 32.0 °F 21.2 °F 10.9 °F 42% 29.78 in 10.0 mi SW 16.1 mph 20.7 mph N/A   Clear
7:53 AM 32.0 °F 18.6 °F 10.9 °F 42% 29.76 in 10.0 mi SW 25.3 mph 33.4 mph N/A   Clear
8:53 AM 35.6 °F 24.5 °F 12.2 °F 38% 29.75 in 10.0 mi SW 20.7 mph 33.4 mph N/A   Clear
9:53 AM 37.0 °F 24.7 °F 12.0 °F 36% 29.74 in 10.0 mi SSW 28.8 mph 36.8 mph N/A   Clear
10:53 AM 42.1 °F 31.7 °F 14.0 °F 32% 29.71 in 10.0 mi SW 27.6 mph 34.5 mph N/A   Clear
11:53 AM 44.1 °F 34.4 °F 15.1 °F 31% 29.67 in 10.0 mi SW 27.6 mph 34.5 mph N/A   Clear
12:53 PM 42.1 °F 33.6 °F 17.1 °F 37% 29.66 in 10.0 mi SW 18.4 mph - N/A   Clear
1:53 PM 42.1 °F 32.3 °F 16.0 °F 35% 29.63 in 10.0 mi SW 24.2 mph - N/A   Clear
2:53 PM 43.0 °F 33.5 °F 15.1 °F 32% 29.62 in 10.0 mi SW 24.2 mph 28.8 mph N/A   Clear
3:53 PM 42.1 °F 32.8 °F 15.1 °F 34% 29.65 in 10.0 mi SW 21.9 mph - N/A   Clear
4:53 PM 39.0 °F 31.0 °F 15.1 °F 38% 29.65 in 10.0 mi SW 13.8 mph - N/A   Clear
5:53 PM 35.1 °F 23.5 °F 15.1 °F 44% 29.69 in 10.0 mi WNW 21.9 mph 26.5 mph N/A   Clear
6:53 PM 26.1 °F 15.0 °F 19.0 °F 75% 29.77 in 10.0 mi North 12.7 mph - N/A   Partly Cloudy
7:53 PM 24.8 °F 20.5 °F 17.6 °F 74% 29.74 in 10.0 mi NNW 3.5 mph - N/A   Overcast
8:53 PM 23.0 °F 13.1 °F 15.1 °F 72% 29.83 in 10.0 mi NE 9.2 mph - N/A   Scattered Clouds
9:53 PM 23.0 °F 13.1 °F 14.0 °F 68% 29.82 in 10.0 mi NE 9.2 mph - N/A   Overcast
10:53 PM 21.9 °F 8.7 °F 10.9 °F 63% 29.79 in 10.0 mi NE 15.0 mph - N/A   Scattered Clouds
11:53 PM 19.0 °F 5.6 °F 9.0 °F 65% 29.79 in 10.0 mi NE 13.8 mph - N/A   Clear